Location: Recife
(8.0585°S, 34.8848°W)
Time: 20:52:16
(UTC-03:00)

S-56A Canister/Altair - Pass Details

Date: 16 April 2026
Orbit: 633 x 2484 km, 38.9° (Epoch: 16 May)

Event Time Altitude Azimuth Distance (km) Brightness Sun altitude
Rises 14:40:34 0° 292° (WNW) 5,352 12.8 36.7°
Reaches altitude 10° 14:44:53 10° 285° (WNW) 4,054 12.6 35.6°
Maximum altitude 14:53:52 36° 223° (SW) 1,972 10.3 33.5°
Drops below altitude 10° 15:00:08 10° 157° (SSE) 2,804 10.2 32.1°
Sets 15:02:37 0° 148° (SSE) 3,552 10.5 31.5°
